Change the Weather History Date:

Friday, February 10, 2012

  Actual Average Record
Temperature  
Mean Temperature 19 °F 19 °F  
Max Temperature 29 °F 28 °F 54 °F (2009)
Min Temperature 8 °F 10 °F -34 °F (1917)
Degree Days  
Heating Degree Days 46 46  
Month to date heating degree days 369 467  
Since 1 July heating degree days 4262 5079  
Moisture  
Dew Point 13 °F    
Average Humidity 80    
Maximum Humidity 92    
Minimum Humidity 68    
Precipitation  
Precipitation 0.17 in 0.04 in 0.59 in (1981)
Month to date precipitation 0.17 0.38  
Year to date precipitation 2.66 1.89  
Snow  
Snow 3.90 in 0.40 in 6.50 in (1981)
Month to date snowfall 3.9 4.8  
Since 1 July snowfall 38.4 46.9  
Snow Depth 9.00 in    
Sea Level Pressure  
Sea Level Pressure 29.95 in    
Wind  
Wind Speed 11 mph (North)    
Max Wind Speed 18 mph    
Max Gust Speed 29 mph    
Visibility 3 miles    
Events Fog , Snow    
T = Trace of Precipitation, MM = Missing Value Source: NWS Daily Summary

Daily Weather History Graph

Daily Weather History Graph

Search for Another Location

Airport or City:

Trip Planner

Search our weather history database for the weather conditions in past years. The results will help you decide how hot, cold, wet, or windy it might be!

Date:

Astronomy

Feb. 10, 2012 Rise Set
Actual Time 7:46 AM EST 6:00 PM EST
Civil Twilight 7:16 AM EST 6:30 PM EST
Nautical Twilight 6:41 AM EST 7:04 PM EST
Astronomical Twilight 6:08 AM EST 7:38 PM EST
Moon 9:48 PM EST (2/10) 8:44 AM EST (2/10)
Length of Visible Light 11h 14m
Length of Day
10h 13m
Waning Gibbous, 90% of the Moon is Illuminated
Feb 10
Waning Gibbous
Feb 14
Last Quarter
Feb 21
New
Feb 29
First Quarter
Mar 8
Full

Hourly Weather History & Observations

Time (EST) Temp. Windchill Dew Point Humidity Pressure Visibility Wind Dir Wind Speed Gust Speed Precip Events Conditions
12:24 AM 28.4 °F 18.0 °F 19.4 °F 69% 29.92 in 10.0 mi WSW 12.7 mph - N/A   Mostly Cloudy
12:53 AM 28.0 °F 18.6 °F 19.9 °F 72% 29.96 in 10.0 mi WSW 10.4 mph - N/A   Overcast
1:53 AM 28.9 °F 18.2 °F 19.9 °F 69% 29.95 in 10.0 mi WSW 13.8 mph 21.9 mph N/A   Overcast
2:53 AM 28.0 °F 17.5 °F 19.0 °F 69% 29.94 in 10.0 mi West 12.7 mph 21.9 mph N/A   Overcast
3:53 AM 28.0 °F 18.1 °F 19.0 °F 69% 29.92 in 10.0 mi WSW 11.5 mph - N/A   Overcast
4:53 AM 28.0 °F 19.3 °F 19.9 °F 72% 29.92 in 10.0 mi SW 9.2 mph - N/A   Overcast
5:53 AM 28.0 °F 20.0 °F 19.9 °F 72% 29.92 in 10.0 mi SSW 8.1 mph - N/A   Overcast
6:53 AM 28.0 °F 20.0 °F 19.9 °F 72% 29.92 in 9.0 mi SW 8.1 mph - N/A   Overcast
7:53 AM 28.0 °F 20.8 °F 21.0 °F 75% 29.92 in 9.0 mi SW 6.9 mph - 0.00 in   Overcast
8:53 AM 28.0 °F 21.7 °F 21.0 °F 75% 29.93 in 3.0 mi SSW 5.8 mph - 0.01 in Snow Light Snow
9:01 AM 28.4 °F 22.2 °F 21.2 °F 74% 29.88 in 2.5 mi SSW 5.8 mph - 0.00 in Snow Light Snow
9:50 AM 26.6 °F 21.2 °F 23.0 °F 86% 29.88 in 1.8 mi South 4.6 mph - 0.01 in Snow Light Snow
9:53 AM 27.0 °F 23.0 °F 23.0 °F 85% 29.93 in 1.5 mi South 3.5 mph - 0.01 in Snow Light Snow
10:18 AM 26.6 °F - 23.0 °F 86% 29.88 in 0.8 mi Calm Calm - 0.01 in Snow Light Snow
10:29 AM 26.6 °F 22.6 °F 23.0 °F 86% 29.88 in 0.5 mi SW 3.5 mph - 0.01 in Fog , Snow Snow
10:43 AM 26.6 °F 22.6 °F 24.8 °F 93% 29.88 in 0.2 mi West 3.5 mph - 0.03 in Fog , Snow Snow
10:53 AM 27.0 °F - 25.0 °F 92% 29.93 in 0.5 mi Calm Calm - 0.04 in Fog , Snow Snow
11:10 AM 28.4 °F - 24.8 °F 86% 29.88 in 0.5 mi Calm Calm - 0.00 in Fog , Snow Snow
11:45 AM 24.8 °F 12.9 °F 19.4 °F 80% 29.89 in 0.5 mi North 13.8 mph 21.9 mph 0.02 in Fog , Snow Snow
11:53 AM 21.9 °F 9.2 °F 18.0 °F 85% 29.94 in 0.5 mi North 13.8 mph - 0.02 in Fog , Snow Light Snow
11:59 AM 21.2 °F 7.8 °F 17.6 °F 86% 29.89 in 0.8 mi North 15.0 mph 20.7 mph 0.00 in Snow Light Snow
12:23 PM 21.2 °F 8.9 °F 15.8 °F 80% 29.89 in 1.0 mi North 12.7 mph 19.6 mph 0.00 in Snow Light Snow
12:31 PM 21.2 °F 9.5 °F 15.8 °F 80% 29.89 in 1.2 mi NNE 11.5 mph - 0.00 in Snow Light Snow
12:43 PM 21.2 °F 8.3 °F 15.8 °F 80% 29.89 in 1.0 mi NNE 13.8 mph - 0.00 in Snow Light Snow
12:53 PM 21.0 °F 9.3 °F 17.1 °F 85% 29.94 in 1.0 mi NNE 11.5 mph 18.4 mph 0.00 in Snow Light Snow
1:05 PM 21.2 °F 10.1 °F 15.8 °F 80% 29.89 in 1.5 mi NNE 10.4 mph - 0.01 in Snow Light Snow
1:12 PM 19.4 °F 6.6 °F 14.0 °F 80% 29.90 in 1.8 mi NNE 12.7 mph 21.9 mph 0.01 in Snow Light Snow
1:34 PM 19.4 °F 7.9 °F 14.0 °F 80% 29.90 in 1.5 mi NNE 10.4 mph - 0.01 in Snow Light Snow
1:41 PM 19.4 °F 6.6 °F 14.0 °F 80% 29.90 in 1.5 mi NNE 12.7 mph - 0.01 in Snow Light Snow
1:53 PM 19.9 °F 7.3 °F 14.0 °F 78% 29.95 in 1.0 mi North 12.7 mph 20.7 mph 0.01 in Snow Light Snow
2:06 PM 19.4 °F 6.6 °F 14.0 °F 80% 29.90 in 0.8 mi North 12.7 mph 18.4 mph 0.00 in Snow Light Snow
2:35 PM 17.6 °F 3.7 °F 12.2 °F 79% 29.91 in 0.8 mi NNE 13.8 mph - 0.00 in Snow Light Snow
2:53 PM 17.1 °F 3.6 °F 10.9 °F 77% 29.97 in 0.5 mi North 12.7 mph 25.3 mph 0.01 in Snow Snow
3:05 PM 15.8 °F 0.3 °F 10.4 °F 79% 29.92 in 0.5 mi NNE 16.1 mph 23.0 mph 0.00 in Snow Snow
3:16 PM 17.6 °F 5.7 °F 12.2 °F 79% 29.92 in 0.5 mi North 10.4 mph - 0.00 in Snow Snow
3:47 PM 15.8 °F 1.4 °F 8.6 °F 73% 29.93 in 1.0 mi North 13.8 mph - 0.01 in Snow Light Snow
3:53 PM 15.1 °F 0.5 °F 9.0 °F 77% 29.99 in 1.8 mi North 13.8 mph - 0.01 in Snow Light Snow
4:08 PM 14.0 °F -1.4 °F 8.6 °F 79% 29.94 in 1.5 mi North 15.0 mph 24.2 mph 0.00 in Snow Light Snow
4:21 PM 14.0 °F 0.5 °F 8.6 °F 79% 29.94 in 1.0 mi North 11.5 mph - 0.00 in Snow Light Snow
4:53 PM 12.9 °F -2.8 °F 6.1 °F 74% 30.02 in 0.8 mi NNE 15.0 mph 23.0 mph 0.01 in Snow Light Snow
5:20 PM 12.2 °F -4.3 °F 6.8 °F 79% 29.97 in 0.5 mi North 16.1 mph 21.9 mph 0.00 in Snow Snow
5:28 PM 10.4 °F -4.1 °F 5.0 °F 79% 29.97 in 1.0 mi North 11.5 mph 21.9 mph 0.00 in Snow Light Snow
5:35 PM 10.4 °F -4.1 °F 5.0 °F 79% 29.97 in 1.8 mi North 11.5 mph - 0.00 in Snow Light Snow
5:53 PM 10.9 °F -4.1 °F 6.1 °F 81% 30.04 in 1.2 mi North 12.7 mph 17.3 mph 0.01 in Snow Light Snow
6:10 PM 10.4 °F -4.8 °F 3.2 °F 73% 29.99 in 2.0 mi North 12.7 mph 25.3 mph 0.00 in Snow Light Snow
6:24 PM 10.4 °F -5.4 °F 3.2 °F 73% 30.00 in 1.5 mi North 13.8 mph 23.0 mph 0.00 in Snow Light Snow
6:53 PM 9.0 °F -9.0 °F 3.0 °F 77% 30.07 in 1.0 mi North 17.3 mph 28.8 mph 0.01 in Snow Light Snow
7:08 PM 8.6 °F -7.7 °F 3.2 °F 79% 30.01 in 1.2 mi North 13.8 mph 23.0 mph 0.00 in Snow Light Snow
7:31 PM 8.6 °F -5.5 °F 3.2 °F 79% 30.02 in 1.5 mi North 10.4 mph 20.7 mph 0.01 in Snow Light Snow
7:41 PM 8.6 °F -7.7 °F 3.2 °F 79% 30.02 in 1.8 mi North 13.8 mph 20.7 mph 0.01 in Snow Light Snow
7:53 PM 9.0 °F -5.1 °F 3.0 °F 77% 30.09 in 2.0 mi North 10.4 mph - 0.01 in Snow Light Snow
8:16 PM 8.6 °F -5.5 °F 1.4 °F 73% 30.02 in 3.0 mi North 10.4 mph 19.6 mph 0.00 in Snow Light Snow
8:53 PM 9.0 °F -6.6 °F 1.0 °F 70% 30.09 in 3.0 mi North 12.7 mph 19.6 mph 0.00 in Snow Light Snow
9:53 PM 9.0 °F -4.2 °F 1.0 °F 70% 30.11 in 10.0 mi North 9.2 mph 17.3 mph 0.00 in   Overcast
10:53 PM 9.0 °F -4.2 °F 1.0 °F 70% 30.11 in 10.0 mi North 9.2 mph 19.6 mph N/A   Overcast
11:53 PM 9.0 °F -6.6 °F 1.0 °F 70% 30.12 in 10.0 mi North 12.7 mph 20.7 mph N/A   Overcast